Hourly Weather Brčko

Today, 8 July, Wednesday

Time Temperature Precipitation Wind Pressure Humidity
00:00 +14°C° 0 mm 1 mps 755 mmHg 87%
01:00 +13°C° 0 mm 1 mps 756 mmHg 88%
02:00 +13°C° 0 mm 1 mps 756 mmHg 88%
03:00 +13°C° 0 mm 1 mps 756 mmHg 88%
04:00 +12°C° 0 mm 1 mps 756 mmHg 89%
05:00 +14°C° 0 mm 1 mps 756 mmHg 85%
06:00 +15°C° 0 mm 0 mps 756 mmHg 80%
07:00 +16°C° 0 mm 0 mps 756 mmHg 76%
08:00 +18°C° 0 mm 0 mps 756 mmHg 70%
09:00 +22°C° 0 mm 1 mps 756 mmHg 64%
10:00 +24°C° 0 mm 1 mps 756 mmHg 57%
11:00 +24°C° 0 mm 1 mps 755 mmHg 55%
12:00 +25°C° 0 mm 1 mps 755 mmHg 52%
13:00 +26°C° 0 mm 2 mps 755 mmHg 50%
14:00 +26°C° 0 mm 2 mps 754 mmHg 51%
15:00 +26°C° 0 mm 2 mps 754 mmHg 52%
16:00 +26°C° 0 mm 2 mps 754 mmHg 54%
17:00 +24°C° 0 mm 2 mps 754 mmHg 60%
18:00 +23°C° 0 mm 2 mps 754 mmHg 67%
19:00 +21°C° 0 mm 1 mps 754 mmHg 73%
20:00 +20°C° 0 mm 1 mps 754 mmHg 76%
21:00 +19°C° 0 mm 1 mps 755 mmHg 78%
22:00 +18°C° 0 mm 1 mps 755 mmHg 81%
23:00 +16°C° 0 mm 1 mps 755 mmHg 83%

Tomorrow, 9 July, Thursday

Time Temperature Precipitation Wind Pressure Humidity
00:00 +16°C° 0 mm 1 mps 755 mmHg 84%
01:00 +15°C° 0 mm 1 mps 755 mmHg 86%
02:00 +15°C° 0 mm 1 mps 755 mmHg 87%
03:00 +15°C° 0 mm 1 mps 755 mmHg 88%
04:00 +13°C° 0 mm 0 mps 755 mmHg 89%
05:00 +16°C° 0 mm 1 mps 756 mmHg 84%
06:00 +19°C° 0 mm 1 mps 756 mmHg 80%
07:00 +21°C° 0 mm 1 mps 756 mmHg 76%
08:00 +23°C° 0 mm 2 mps 756 mmHg 70%
09:00 +25°C° 0 mm 2 mps 756 mmHg 64%
10:00 +26°C° 0 mm 3 mps 756 mmHg 57%
11:00 +27°C° 0 mm 3 mps 756 mmHg 56%
12:00 +28°C° 0 mm 4 mps 755 mmHg 55%
13:00 +29°C° 0 mm 4 mps 755 mmHg 53%
14:00 +29°C° 0 mm 4 mps 755 mmHg 55%
15:00 +29°C° 0 mm 4 mps 755 mmHg 57%
16:00 +29°C° 0 mm 4 mps 754 mmHg 58%
17:00 +27°C° 0 mm 4 mps 754 mmHg 65%
18:00 +25°C° 0 mm 3 mps 754 mmHg 71%
19:00 +24°C° 0 mm 3 mps 754 mmHg 77%
20:00 +22°C° 0 mm 3 mps 754 mmHg 79%
21:00 +20°C° 0 mm 2 mps 755 mmHg 81%
22:00 +19°C° 0 mm 2 mps 755 mmHg 82%
23:00 +19°C° 0 mm 2 mps 755 mmHg 84%

Day after tomorrow, 10 July, Friday

Time Temperature Precipitation Wind Pressure Humidity
00:00 +18°C° 0 mm 2 mps 755 mmHg 86%
01:00 +18°C° 0 mm 2 mps 754 mmHg 87%
02:00 +17°C° 0 mm 2 mps 754 mmHg 88%
03:00 +18°C° 0 mm 1 mps 754 mmHg 89%
04:00 +18°C° 0 mm 1 mps 754 mmHg 90%
05:00 +19°C° 0 mm 1 mps 754 mmHg 85%
06:00 +21°C° 0 mm 1 mps 754 mmHg 80%
07:00 +22°C° 0 mm 1 mps 754 mmHg 75%
08:00 +24°C° 0 mm 1 mps 753 mmHg 70%
09:00 +26°C° 0 mm 1 mps 753 mmHg 66%
10:00 +28°C° 0 mm 2 mps 753 mmHg 61%
11:00 +29°C° 0 mm 2 mps 753 mmHg 59%
12:00 +30°C° 0 mm 3 mps 752 mmHg 58%
13:00 +31°C° 0 mm 3 mps 752 mmHg 56%
14:00 +31°C° 0 mm 3 mps 751 mmHg 57%
15:00 +31°C° 0 mm 3 mps 751 mmHg 58%
16:00 +31°C° 0 mm 3 mps 751 mmHg 59%
17:00 +30°C° 0 mm 3 mps 751 mmHg 64%
18:00 +28°C° 0 mm 2 mps 751 mmHg 69%
19:00 +27°C° 0 mm 2 mps 751 mmHg 74%
20:00 +26°C° 0 mm 2 mps 751 mmHg 76%
21:00 +25°C° 0 mm 2 mps 751 mmHg 78%
22:00 +24°C° 0 mm 2 mps 751 mmHg 80%
23:00 +23°C° 0 mm 1 mps 751 mmHg 82%

11 July, Saturday

Time Temperature Precipitation Wind Pressure Humidity
00:00 +23°C° 0 mm 1 mps 751 mmHg 83%
01:00 +22°C° 0 mm 1 mps 751 mmHg 85%
02:00 +22°C° 0 mm 1 mps 751 mmHg 86%
03:00 +21°C° 0 mm 1 mps 751 mmHg 87%
04:00 +21°C° 0 mm 1 mps 751 mmHg 87%
05:00 +22°C° 0 mm 1 mps 751 mmHg 84%
06:00 +24°C° 0 mm 1 mps 751 mmHg 80%
07:00 +25°C° 0 mm 1 mps 751 mmHg 76%
08:00 +27°C° 0 mm 1 mps 751 mmHg 71%
09:00 +28°C° 0 mm 2 mps 752 mmHg 67%
10:00 +29°C° 0 mm 2 mps 752 mmHg 63%
11:00 +30°C° 0 mm 2 mps 751 mmHg 60%
12:00 +31°C° 0 mm 2 mps 751 mmHg 57%
13:00 +32°C° 0 mm 2 mps 751 mmHg 54%
14:00 +32°C° 0.1 mm 2 mps 751 mmHg 55%
15:00 +31°C° 0.1 mm 3 mps 751 mmHg 57%
16:00 +31°C° 0.1 mm 3 mps 751 mmHg 58%
17:00 +27°C° 1.2 mm 4 mps 752 mmHg 69%
18:00 +22°C° 1.2 mm 4 mps 753 mmHg 80%
19:00 +16°C° 1.2 mm 5 mps 753 mmHg 91%
20:00 +16°C° 0.5 mm 5 mps 754 mmHg 91%
21:00 +15°C° 0.5 mm 5 mps 756 mmHg 90%
22:00 +15°C° 0.5 mm 5 mps 757 mmHg 90%
23:00 +14°C° 0.1 mm 5 mps 757 mmHg 90%

12 July, Sunday

Time Temperature Precipitation Wind Pressure Humidity
00:00 +13°C° 0.1 mm 5 mps 757 mmHg 90%
01:00 +13°C° 0.1 mm 4 mps 757 mmHg 90%
02:00 +12°C° 0.2 mm 4 mps 758 mmHg 91%
03:00 +12°C° 0.2 mm 4 mps 758 mmHg 92%
04:00 +12°C° 0.2 mm 3 mps 758 mmHg 94%
05:00 +13°C° 0 mm 4 mps 758 mmHg 90%
06:00 +13°C° 0 mm 4 mps 758 mmHg 86%
07:00 +14°C° 0 mm 4 mps 759 mmHg 83%
08:00 +17°C° 0 mm 4 mps 759 mmHg 75%
09:00 +18°C° 0 mm 4 mps 759 mmHg 67%
10:00 +20°C° 0 mm 5 mps 759 mmHg 60%
11:00 +21°C° 0 mm 4 mps 759 mmHg 57%
12:00 +22°C° 0 mm 4 mps 759 mmHg 54%
13:00 +22°C° 0 mm 4 mps 758 mmHg 52%
14:00 +22°C° 0 mm 4 mps 758 mmHg 53%
15:00 +22°C° 0 mm 4 mps 758 mmHg 54%
16:00 +22°C° 0 mm 3 mps 758 mmHg 56%
17:00 +21°C° 0 mm 3 mps 758 mmHg 63%
18:00 +19°C° 0 mm 2 mps 758 mmHg 70%
19:00 +18°C° 0 mm 2 mps 758 mmHg 77%
20:00 +16°C° 0 mm 1 mps 759 mmHg 80%
21:00 +15°C° 0 mm 1 mps 759 mmHg 83%
22:00 +14°C° 0 mm 1 mps 759 mmHg 86%
23:00 +14°C° 0 mm 1 mps 759 mmHg 86%

13 July, Monday

Time Temperature Precipitation Wind Pressure Humidity
00:00 +14°C° 0 mm 1 mps 759 mmHg 87%
01:00 +13°C° 0 mm 1 mps 759 mmHg 87%
02:00 +13°C° 0 mm 1 mps 759 mmHg 88%
03:00 +12°C° 0 mm 1 mps 759 mmHg 89%
04:00 +12°C° 0 mm 1 mps 758 mmHg 89%
05:00 +14°C° 0 mm 1 mps 758 mmHg 83%
06:00 +15°C° 0 mm 2 mps 758 mmHg 78%
07:00 +17°C° 0 mm 2 mps 758 mmHg 72%
08:00 +18°C° 0 mm 2 mps 758 mmHg 67%
09:00 +20°C° 0 mm 2 mps 758 mmHg 62%
10:00 +21°C° 0 mm 2 mps 758 mmHg 57%
11:00 +23°C° 0 mm 2 mps 757 mmHg 54%
12:00 +24°C° 0 mm 2 mps 757 mmHg 51%
13:00 +24°C° 0 mm 2 mps 756 mmHg 48%
14:00 +24°C° 0 mm 2 mps 756 mmHg 49%
15:00 +24°C° 0 mm 2 mps 756 mmHg 49%
16:00 +24°C° 0 mm 1 mps 755 mmHg 50%
17:00 +23°C° 0 mm 1 mps 755 mmHg 58%
18:00 +21°C° 0 mm 1 mps 755 mmHg 65%
19:00 +20°C° 0 mm 1 mps 755 mmHg 72%
20:00 +18°C° 0 mm 1 mps 756 mmHg 76%
21:00 +16°C° 0 mm 1 mps 756 mmHg 80%
22:00 +15°C° 0 mm 1 mps 756 mmHg 84%
23:00 +14°C° 0 mm 1 mps 756 mmHg 85%
Show more